Location: ??????????
(31.2156°N, 29.9553°E)
Time: 07:45:14
(UTC+00:00)

Hubble Space Telescope - Pass Details

Date: 03 March 2021
Orbit: 535 x 539 km, 28.5° (Epoch: 15 April)

Event Time Altitude Azimuth Distance (km) Brightness Sun altitude
Rises 17:29:23 0° 232° (SW) 2,660 5.0 -19.9°
Reaches altitude 10° 17:31:52 10° 219° (SW) 1,772 3.8 -20.4°
Enters shadow 17:34:54 26° 173° (S) 1,068 2.1 -21.1°
